Terug naar catalogus

STARLINK-31384

ActiefCommunicatieVLEO
NORAD 58983·PAYLOAD·🇺🇸 United States

Gelanceerd Feb 15, 2024 vanaf Vandenberg Space Force Base

Loading…

Volgende Passages (komende 24 uur)

TLE

VersSource: CelesTrak SupGP

Epoch: Sep 15, 2026, 02:40 UTC

1 58983C 24031U   26258.11159722  .00058815  00000+0  17408-2 0  2580
2 58983  53.1564 133.0430 0001038  70.4735  94.5296 15.34305268    14

Volg STARLINK-31384 in realtime met AllMySat

Download on the App Store